Wind_Speed
7 6 5 5 5 5 5 5 5 5 5 4 4 3 4 5 5 6 7 7 7 7 7 7 7 8 8 8 9 9 9 10 11 12 13 13 14 15 16 17 18 19 20 21 22 22 23 23 24 24 25 25 26 26 26 26 27 28 28 27 27 26
9 7 6 6 6 6 6 5 4 4 2 1 1 2 4 5 6 7 7 7 7 7 7 7 7 8 9 10 11 11 12 12 13 13 14 14 15 16 16 17 18 19 20 21 23 24 25 25 26 27 28 28 28 28 29 29 29 29 30 30 29 29
10 9 9 8 8 8 7 6 6 4 3 2 1 3 4 5 6 7 7 7 7 7 6 7 7 8 9 9 11 12 13 14 15 15 16 16 17 17 18 18 19 20 20 21 22 24 25 27 28 29 30 31 32 32 32 32 32 33 33 33 33 31
13 12 11 10 10 9 8 7 6 5 4 4 5 6 6 6 6 5 6 6 6 7 7 8 8 9 10 10 11 12 13 14 15 16 17 17 18 19 20 21 21 22 23 24 25 26 27 28 29 31 32 34 35 36 36 36 37 37 38 37 37 36
13 13 12 11 11 10 10 9 9 8 8 8 8 8 7 7 6 6 6 6 7 8 9 10 11 12 13 14 14 15 15 16 16 17 17 18 19 20 21 23 24 26 27 28 29 30 31 33 34 35 36 37 38 40 40 41 41 41 41 41 41 40
15 15 14 13 13 13 13 12 11 11 10 9 9 8 8 7 7 7 6 7 8 9 10 11 13 14 15 16 17 17 18 18 18 19 20 20 21 22 23 25 27 29 30 32 33 35 36 37 38 39 40 40 41 42 43 43 43 43 44 44 44 44
18 17 16 15 14 14 14 14 13 13 11 10 9 8 8 7 7 7 7 8 9 10 11 13 14 15 16 17 17 18 18 19 20 21 22 23 24 26 27 28 30 32 34 36 37 39 40 41 42 43 43 43 43 43 43 44 44 44 44 45 46 46
19 17 16 15 16 16 16 16 15 14 12 10 9 9 9 8 8 8 8 10 11 12 13 14 15 16 17 18 18 18 19 20 21 22 23 25 26 28 30 31 33 35 37 39 41 42 44 44 45 46 46 46 45 45 45 44 44 45 45 45 46 46
18 17 16 17 17 17 17 16 15 13 11 10 10 10 10 10 10 10 11 12 13 14 15 16 18 19 19 20 20 20 21 21 22 24 25 27 28 29 31 33 35 37 39 41 43 45 46 47 48 49 49 49 48 47 47 46 46 46 47 47 47 47
19 19 18 18 18 17 16 15 13 12 11 11 11 12 12 12 13 13 14 15 16 18 19 20 21 21 22 22 22 23 23 24 25 27 28 29 30 32 34 35 37 39 41 42 44 46 47 48 50 50 50 49 49 49 49 49 49 49 49 49 49 49
20 20 20 19 18 17 16 14 14 13 13 13 13 13 14 15 16 16 17 18 20 22 23 23 24 25 25 25 25 25 26 27 28 30 31 32 33 35 36 38 40 42 43 44 45 46 47 48 49 49 48 49 49 50 50 50 50 50 51 51 51 51
20 20 20 19 18 17 16 15 15 15 15 15 15 16 17 19 19 19 19 20 22 24 25 26 27 27 27 27 27 27 28 30 31 32 33 34 35 37 38 40 42 43 45 46 47 47 47 48 48 47 47 47 49 50 51 52 52 52 53 54 54 55
19 20 20 19 18 17 16 15 15 16 16 17 17 18 19 20 21 20 20 22 23 25 27 28 29 30 29 29 28 29 31 32 34 35 35 36 37 39 40 42 43 45 46 46 47 48 48 48 48 48 48 49 49 49 50 52 54 55 55 56 56 57
19 20 20 19 18 17 17 17 17 18 18 18 19 20 21 22 22 21 22 23 25 27 29 30 31 31 31 30 30 31 33 35 36 37 38 38 39 40 41 43 44 45 45 46 47 48 49 50 50 50 51 52 52 51 50 51 54 56 57 58 58 59
16 18 18 17 17 18 18 19 19 20 19 19 20 22 24 24 23 23 24 25 26 27 29 31 32 32 31 30 31 33 35 36 37 38 39 40 41 42 43 44 44 45 45 46 47 49 50 52 53 53 54 54 54 53 51 51 55 57 58 59 60 60
14 16 17 17 18 19 19 20 21 22 22 22 24 25 26 25 24 24 25 25 26 28 30 32 32 31 30 31 32 35 36 37 38 39 40 41 42 43 44 44 45 45 46 47 49 50 52 54 54 54 55 54 53 52 50 51 53 55 56 59 59 58
14 16 17 18 19 20 21 22 24 25 26 26 27 27 26 26 25 24 25 25 27 29 31 31 30 30 31 33 35 37 38 38 39 40 40 41 42 43 44 44 45 46 47 48 50 51 54 55 53 53 53 52 50 48 46 46 49 52 55 59 59 58
14 16 17 18 19 21 23 24 25 27 27 27 27 27 26 25 24 24 25 27 29 31 31 30 30 31 32 35 37 38 39 40 40 41 41 42 42 43 44 44 45 47 48 49 50 51 55 55 52 51 51 49 46 44 42 42 45 48 52 55 55 54
16 18 20 21 22 23 23 24 24 24 24 25 26 26 25 24 24 25 28 30 31 30 30 30 30 32 35 37 38 39 40 41 41 41 41 42 43 44 45 45 46 47 48 50 50 50 53 55 52 49 48 45 42 40 39 39 41 43 45 47 48 47
17 19 22 23 23 23 23 23 23 23 23 25 25 24 23 24 25 28 30 30 30 30 30 30 32 34 36 38 39 39 40 41 41 41 41 42 44 45 45 46 48 48 48 49 49 49 50 53 50 45 44 42 38 35 35 35 37 39 40 42 43 41
19 20 22 23 24 24 23 24 24 24 24 25 24 23 24 25 28 29 30 30 30 30 30 31 33 36 37 38 38 39 40 41 41 41 41 42 44 45 46 46 48 49 48 47 48 47 46 48 48 43 39 37 33 30 30 32 36 38 38 40 41 40
21 21 22 23 24 24 25 25 25 25 25 24 23 23 25 27 30 31 31 32 31 31 31 33 35 36 37 38 38 39 40 40 40 41 42 43 44 45 46 46 46 48 48 46 46 45 43 44 44 39 35 32 29 26 27 31 34 37 39 40 42 42
21 21 22 24 25 26 26 26 26 25 24 22 23 25 27 29 30 31 32 32 31 31 33 35 36 37 37 37 38 39 39 39 39 40 42 43 43 44 45 45 45 46 47 45 44 44 41 39 38 35 31 29 27 26 27 31 34 36 39 42 43 44
22 22 23 25 27 28 28 27 26 25 23 23 25 27 28 29 30 31 31 31 31 32 34 35 36 36 37 37 37 38 38 38 38 39 41 41 42 43 44 45 44 44 45 44 42 42 39 35 32 31 29 29 29 28 28 31 34 35 37 41 43 44
24 23 25 27 28 29 28 27 26 24 24 25 27 28 29 30 30 31 31 31 32 33 35 36 36 36 36 36 36 37 37 37 38 39 39 39 40 42 43 43 42 42 43 43 42 39 36 32 30 30 31 31 32 31 30 31 33 34 35 38 42 44
25 24 25 27 28 29 28 27 26 25 25 27 28 29 30 31 31 32 31 31 33 34 35 36 35 35 35 35 35 36 36 37 37 38 38 37 38 40 41 41 40 40 41 42 41 38 34 32 33 34 34 34 35 35 33 31 31 32 33 35 39 40
25 25 26 27 28 29 28 26 26 26 27 28 29 30 31 32 32 31 31 32 34 35 35 35 35 35 34 34 34 35 36 36 37 37 36 36 36 37 39 39 39 38 39 40 39 38 37 37 39 38 37 38 38 36 33 31 31 31 32 34 37 38
26 26 27 28 28 28 28 27 27 28 28 29 30 31 31 31 31 31 31 33 35 35 35 35 35 34 33 33 33 34 34 34 35 35 35 34 34 35 36 37 38 38 38 39 39 41 42 42 43 43 42 41 39 37 34 34 34 35 34 35 38 39
25 26 27 28 28 28 28 28 28 29 30 30 31 31 31 31 31 31 32 34 35 35 34 34 34 34 33 32 32 33 33 32 32 33 33 32 32 34 35 36 37 38 38 40 41 43 44 44 44 45 44 41 40 39 39 40 40 40 39 40 42 43
25 27 28 28 28 28 29 29 29 29 30 30 31 31 31 30 31 32 33 34 34 34 33 33 33 33 32 32 32 32 32 31 30 31 30 29 29 32 35 37 38 39 39 40 42 44 45 45 44 44 43 41 40 40 40 40 41 41 42 44 45 46
26 27 28 28 29 29 29 28 28 29 29 30 31 31 30 30 31 32 33 33 33 33 33 32 32 32 31 32 32 32 31 30 28 29 30 28 27 29 33 36 37 37 37 39 40 42 43 44 43 41 39 38 36 35 35 37 38 39 40 41 41 42
27 28 28 29 29 29 29 28 27 28 29 30 30 30 30 30 31 32 33 33 32 32 32 32 31 31 30 31 32 32 31 29 26 25 27 28 27 26 29 32 34 34 34 35 37 37 38 40 40 38 36 35 33 32 33 35 35 35 35 35 36 38
28 28 29 29 29 29 28 27 26 27 28 29 29 29 30 30 32 33 33 32 32 32 32 32 31 30 30 30 31 31 32 31 28 23 21 24 27 27 27 29 31 30 29 30 34 35 34 35 36 35 35 35 35 34 33 33 33 33 33 33 35 38
29 29 30 29 28 28 28 26 26 27 27 28 28 29 29 30 32 33 32 31 31 31 31 30 30 30 30 30 30 29 29 31 32 28 22 20 22 25 27 29 30 30 28 29 30 32 34 34 34 34 34 35 34 33 32 31 32 34 35 34 35 38
30 30 29 28 28 29 27 26 25 27 27 27 28 28 29 29 31 31 31 30 30 30 30 29 29 29 29 29 29 28 28 28 31 32 30 24 21 20 21 24 27 30 31 32 31 31 32 32 32 32 32 32 32 34 33 32 32 33 34 33 33 35
30 29 29 28 29 29 27 25 25 27 28 28 27 28 29 29 29 29 29 29 29 30 29 29 28 28 29 28 27 26 27 27 28 30 33 33 30 26 22 20 21 24 29 32 32 30 30 30 30 30 29 29 31 33 33 33 33 31 30 29 29 30
29 28 28 28 29 28 26 24 25 28 28 28 28 28 28 28 28 28 27 26 27 28 28 28 27 27 28 27 25 24 25 26 26 27 29 32 34 35 32 29 25 24 26 29 31 30 30 30 30 28 28 29 31 31 31 32 31 29 27 26 25 25
29 28 28 28 28 27 26 24 26 28 28 27 28 28 28 28 27 27 25 25 24 26 26 26 26 26 26 25 24 23 23 24 25 27 28 29 32 33 34 34 32 30 28 28 28 29 30 30 29 29 29 29 28 27 27 27 27 27 27 26 25 24
Wind_Direction
189 191 190 184 167 159 154 146 138 128 117 107 93 70 53 50 45 41 36 34 33 32 30 26 24 22 18 16 13 9 4 359 358 356 353 351 348 345 343 341 339 339 338 338 337 337 337 337 336 335 334 333 332 330 329 328 326 323 322 322 320 319
207 207 203 198 186 181 178 173 172 165 161 151 61 11 16 16 10 8 7 9 13 15 16 13 8 5 359 356 353 350 348 346 345 345 344 343 342 341 339 338 336 335 334 334 333 332 332 331 331 330 328 327 327 326 325 324 322 319 318 317 316 316
215 214 210 205 199 196 192 190 192 191 201 222 287 323 334 337 339 346 349 354 360 359 1 360 357 355 350 346 343 339 339 337 336 337 337 339 339 338 338 337 337 335 334 332 331 330 329 328 327 326 325 323 323 322 321 320 318 316 315 314 312 312
217 217 214 207 203 202 199 199 206 216 236 258 276 288 294 301 309 320 327 332 335 335 336 338 339 338 335 334 333 332 332 332 332 332 332 334 335 335 335 335 333 333 331 330 329 328 326 325 323 322 321 320 319 318 317 316 314 313 311 310 309 308
219 219 215 210 209 212 213 217 226 236 249 258 265 269 272 279 287 294 302 309 314 319 324 327 328 329 328 328 329 329 329 329 330 330 329 330 331 331 331 330 329 328 327 327 326 325 324 322 321 320 318 317 316 314 313 312 311 309 307 305 304 304
221 218 215 214 215 220 224 229 235 242 248 252 255 259 263 268 274 281 292 303 313 318 322 323 324 324 324 324 325 325 326 327 327 328 328 328 327 327 327 326 325 325 324 324 323 322 321 320 319 318 316 315 313 311 310 309 307 305 304 302 301 299
225 220 217 219 223 229 234 237 241 245 248 251 255 260 263 265 271 282 294 305 312 314 315 316 317 317 318 318 319 320 321 322 323 324 324 324 324 324 324 323 323 322 322 321 321 320 319 318 317 316 314 313 310 308 306 305 303 301 300 298 297 296
229 225 225 231 235 237 239 240 243 244 247 252 257 261 264 270 280 289 297 302 305 306 307 307 308 309 310 311 314 316 317 318 319 319 320 320 320 321 321 321 321 321 321 320 320 319 318 316 315 314 312 310 308 305 303 301 299 297 296 294 293 292
232 230 233 237 237 236 238 239 240 242 245 250 255 261 267 276 284 290 295 298 300 302 303 303 303 304 305 308 311 314 315 315 315 316 317 317 317 318 318 318 318 319 319 318 318 317 316 315 314 313 311 309 307 306 304 301 298 296 294 292 290 289
235 234 236 235 232 231 233 236 239 242 245 248 253 261 270 278 285 293 301 307 311 312 311 309 308 308 309 310 312 313 313 313 314 315 315 316 316 316 316 317 317 317 316 316 315 314 314 313 313 312 311 309 309 308 306 304 301 298 296 292 290 287
237 236 235 232 229 230 233 238 243 244 245 251 258 269 280 288 293 300 309 316 319 318 315 313 312 312 312 313 313 312 313 313 314 314 314 314 315 315 316 317 316 316 315 314 313 312 312 311 311 310 309 309 308 307 306 304 302 300 298 295 292 289
240 238 234 229 229 235 240 246 251 254 258 264 272 281 288 290 294 299 306 313 316 315 313 311 310 310 311 311 311 311 311 312 312 312 312 313 313 314 315 315 315 315 314 313 312 312 311 310 309 308 306 305 304 304 303 301 300 298 297 295 293 290
242 238 233 231 236 242 249 256 261 266 269 271 274 278 279 281 286 293 299 306 310 310 309 308 307 308 309 308 308 309 310 310 310 310 311 311 312 313 314 314 314 314 313 312 311 311 309 308 308 307 305 303 302 300 299 297 295 294 293 292 291 290
245 241 236 237 245 251 257 264 268 270 272 272 271 269 270 275 281 287 293 300 304 306 306 305 305 306 306 305 306 307 308 308 309 309 309 310 311 312 312 312 312 312 311 310 309 309 308 308 307 306 305 303 302 299 297 295 292 290 288 287 287 286
243 240 239 245 254 258 262 266 269 271 273 271 264 261 266 271 275 281 289 296 300 302 302 302 302 303 302 302 303 304 305 306 306 307 308 309 310 310 311 311 311 311 310 309 309 308 308 308 308 306 305 303 301 299 297 294 291 289 287 284 282 282
243 242 246 253 259 260 262 263 264 265 264 259 255 256 262 265 268 277 287 293 296 297 298 299 299 300 299 300 302 303 304 305 305 306 307 308 309 310 310 311 310 310 310 309 309 308 308 308 307 306 305 303 301 300 298 294 291 288 286 283 282 281
248 249 251 254 255 254 254 255 256 256 254 251 251 254 257 260 267 279 287 290 293 294 295 297 297 297 298 300 302 304 305 305 305 306 307 308 309 309 309 310 310 310 310 309 308 308 309 309 308 307 305 304 303 302 298 294 290 287 285 284 283 282
264 263 261 260 256 253 252 252 252 253 252 250 251 252 255 262 273 283 288 290 292 293 294 295 295 296 299 302 304 305 306 307 307 308 308 309 309 309 308 309 309 309 309 310 310 310 310 309 309 308 307 306 305 303 298 294 291 289 288 287 286 285
276 272 269 267 264 260 257 256 255 254 253 251 252 254 259 270 281 287 290 291 292 293 294 295 296 299 302 305 306 307 307 308 308 309 309 309 309 308 308 309 310 310 310 311 312 312 311 310 310 310 308 306 304 303 300 297 295 292 291 291 291 290
275 273 271 269 265 262 259 258 256 254 253 253 256 261 269 278 285 289 291 292 292 293 294 296 299 303 305 307 308 308 308 308 309 309 309 309 308 308 309 311 311 312 312 313 314 314 312 310 310 310 307 304 304 304 301 299 296 294 294 294 294 293
277 274 270 265 262 259 257 256 255 253 254 256 260 267 275 283 290 293 294 294 294 295 297 299 303 306 307 308 308 308 308 308 309 309 309 308 308 309 311 312 313 313 314 315 315 315 313 311 310 309 307 306 307 307 302 298 295 293 291 292 292 292
278 275 269 262 258 257 255 255 254 253 254 257 263 272 283 291 296 296 296 296 297 297 300 303 306 308 308 308 308 308 308 309 309 309 309 309 309 311 312 314 314 315 315 316 316 315 314 312 309 309 309 310 311 309 302 295 293 292 292 293 294 294
275 273 268 261 258 257 256 255 254 254 255 261 271 282 291 295 296 296 296 297 297 299 302 306 307 308 309 309 309 308 309 309 310 309 309 309 311 312 314 314 315 316 316 316 316 315 314 312 310 312 315 314 313 313 305 297 294 295 296 296 296 297
271 270 267 264 261 259 257 256 255 256 262 271 282 290 295 296 296 295 295 296 297 300 304 307 308 309 309 310 310 309 309 310 309 309 309 311 313 314 315 316 317 317 316 316 315 314 313 313 314 317 320 318 317 317 309 299 295 295 296 296 295 295
268 267 268 266 263 260 257 256 257 262 271 281 289 294 296 296 296 296 296 296 299 303 306 308 309 310 310 310 311 310 310 310 309 309 311 313 315 315 316 317 317 317 316 315 315 314 314 316 320 324 323 321 322 320 312 301 295 293 292 293 293 293
268 268 268 265 262 259 257 257 261 269 279 288 294 296 297 296 296 296 296 297 300 304 307 309 310 310 311 312 312 310 310 310 310 311 313 316 317 317 317 317 318 318 317 315 314 314 317 322 326 326 324 324 323 320 313 305 300 297 296 294 293 294
269 269 268 265 262 260 259 261 269 278 287 292 295 295 295 294 295 295 296 299 303 307 308 309 310 311 311 312 312 311 310 311 311 313 316 318 319 318 317 317 319 319 317 316 317 320 324 327 327 325 324 324 321 318 315 312 309 308 304 297 294 297
266 265 265 264 262 261 263 269 278 286 291 293 293 292 292 293 294 296 298 302 305 308 309 310 310 311 311 312 311 311 311 312 313 315 317 320 320 319 318 319 320 320 320 321 322 323 324 325 323 321 320 319 317 317 319 317 315 313 307 300 297 299
263 263 262 262 262 265 270 277 283 288 290 290 290 290 291 293 295 297 300 304 307 309 310 310 311 311 312 312 311 310 311 312 314 316 318 321 321 320 320 321 322 324 325 324 323 321 319 319 318 316 316 316 317 318 318 316 314 312 309 305 303 303
262 261 261 262 265 270 275 280 284 286 287 288 288 289 291 294 296 299 302 306 308 309 310 311 311 312 312 312 311 310 311 313 315 316 318 323 324 322 324 325 325 326 325 322 319 316 314 314 314 314 314 316 315 314 313 312 311 309 307 305 306 306
261 261 262 265 269 273 277 281 283 284 285 287 288 289 292 294 297 301 305 307 308 309 310 311 311 312 312 311 310 310 310 313 317 318 319 323 327 327 326 325 323 322 319 315 313 312 310 310 311 312 312 312 311 309 308 307 306 304 303 303 303 303
262 263 265 268 271 275 278 280 282 283 284 285 287 289 293 297 301 304 306 307 308 310 311 311 311 312 312 311 310 310 311 313 317 321 322 323 326 328 327 324 322 321 317 310 307 308 307 305 307 309 310 310 310 308 305 303 303 302 301 300 299 299
264 265 267 270 273 275 277 279 280 281 282 284 286 290 295 300 304 306 307 308 309 310 311 311 311 311 311 310 310 311 312 313 315 318 321 323 326 328 328 325 325 327 324 316 311 310 309 309 311 312 311 311 310 307 304 303 304 304 301 298 298 299
266 268 270 272 274 276 277 279 280 280 282 284 288 293 298 303 305 306 307 309 310 310 310 310 310 310 310 310 310 311 313 315 316 317 319 322 325 329 330 330 331 332 332 328 322 319 316 316 317 315 312 311 311 310 309 308 305 301 299 297 296 297
268 270 272 274 275 277 278 280 280 281 283 287 291 296 301 304 305 305 307 308 309 308 308 308 308 308 308 309 310 312 315 318 319 321 323 325 327 328 330 333 336 337 335 333 331 328 323 321 318 316 315 316 317 317 317 313 305 299 298 297 297 296
269 271 272 273 275 276 278 280 281 283 286 290 295 299 302 303 303 304 306 307 307 306 306 306 307 307 307 308 310 313 316 319 322 325 328 331 333 334 335 337 341 342 339 335 333 331 327 324 322 321 322 324 323 321 319 315 308 304 301 300 300 302
269 270 271 273 274 276 277 281 283 284 288 293 296 300 302 302 302 304 305 305 304 303 302 303 304 305 306 308 310 313 317 319 323 327 330 332 334 336 338 341 344 347 344 337 333 331 329 327 326 329 331 330 325 322 319 316 314 314 312 309 309 313
268 269 270 272 274 275 278 282 284 286 290 294 298 300 301 301 302 303 303 301 300 298 298 300 302 304 305 307 311 315 317 320 324 327 330 332 333 334 336 339 343 345 345 340 337 335 333 331 332 335 335 332 327 325 324 324 325 325 323 320 322 326
Height
1533 1532 1532 1532 1531 1531 1532 1532 1531 1531 1531 1531 1530 1530 1530 1529 1528 1526 1524 1523 1523 1524 1524 1525 1525 1525 1525 1525 1524 1524 1523 1522 1521 1520 1519 1518 1517 1516 1515 1514 1513 1512 1511 1510 1509 1508 1508 1507 1506 1505 1504 1503 1502 1501 1500 1499 1498 1496 1495 1494 1493 1491
1531 1531 1531 1530 1530 1531 1531 1531 1530 1530 1530 1530 1530 1529 1528 1527 1526 1524 1523 1523 1524 1524 1524 1525 1525 1524 1524 1523 1523 1522 1521 1520 1519 1518 1517 1516 1516 1515 1514 1513 1512 1511 1510 1509 1508 1507 1506 1505 1504 1503 1501 1500 1499 1498 1497 1496 1495 1494 1492 1491 1490 1488
1529 1529 1529 1529 1530 1530 1530 1529 1529 1529 1529 1529 1528 1527 1526 1525 1524 1524 1523 1523 1523 1524 1524 1524 1524 1524 1523 1522 1522 1521 1519 1518 1517 1517 1516 1515 1514 1513 1512 1511 1510 1509 1509 1508 1507 1506 1505 1503 1502 1501 1499 1498 1497 1496 1494 1493 1492 1490 1489 1488 1486 1486
1527 1528 1528 1528 1528 1528 1528 1528 1528 1528 1528 1527 1527 1526 1525 1525 1524 1524 1523 1523 1523 1523 1523 1523 1523 1522 1522 1521 1520 1519 1518 1517 1516 1515 1514 1513 1512 1511 1510 1509 1508 1507 1507 1506 1505 1504 1503 1502 1501 1500 1498 1496 1494 1492 1491 1490 1488 1486 1485 1484 1482 1482
1526 1527 1526 1527 1527 1527 1527 1527 1527 1527 1526 1526 1526 1525 1524 1524 1523 1523 1523 1523 1523 1522 1522 1522 1522 1521 1520 1519 1518 1517 1516 1515 1514 1513 1512 1511 1511 1509 1508 1507 1506 1505 1504 1503 1502 1501 1500 1499 1497 1496 1495 1493 1491 1489 1487 1486 1484 1482 1481 1479 1478 1477
1524 1525 1525 1525 1526 1526 1526 1526 1526 1525 1525 1524 1524 1523 1523 1523 1522 1522 1522 1522 1522 1521 1521 1521 1520 1519 1518 1517 1516 1515 1514 1513 1512 1511 1510 1509 1508 1507 1506 1505 1504 1502 1501 1499 1498 1497 1496 1494 1492 1491 1490 1488 1487 1484 1483 1481 1480 1478 1476 1474 1473 1472
1523 1523 1523 1524 1524 1524 1524 1524 1524 1524 1523 1523 1522 1522 1522 1521 1521 1521 1521 1521 1521 1521 1520 1519 1519 1518 1517 1516 1514 1513 1512 1511 1510 1508 1507 1506 1505 1504 1503 1502 1500 1499 1497 1496 1494 1492 1491 1489 1488 1486 1484 1483 1481 1479 1477 1476 1474 1473 1471 1469 1468 1466
1521 1521 1522 1522 1522 1522 1522 1522 1522 1522 1522 1522 1521 1521 1521 1520 1520 1520 1520 1520 1520 1520 1519 1518 1517 1516 1515 1514 1513 1512 1510 1509 1508 1506 1505 1504 1502 1501 1500 1498 1497 1495 1493 1491 1489 1487 1486 1484 1482 1480 1478 1477 1475 1473 1472 1470 1468 1466 1465 1463 1462 1460
1519 1519 1519 1519 1519 1520 1520 1520 1520 1520 1520 1520 1520 1520 1519 1519 1520 1519 1519 1519 1519 1518 1517 1516 1515 1514 1513 1512 1510 1509 1508 1507 1506 1504 1503 1502 1500 1499 1497 1495 1494 1492 1490 1487 1485 1483 1481 1479 1477 1475 1472 1470 1468 1466 1464 1463 1461 1459 1458 1456 1455 1454
1516 1516 1517 1517 1517 1517 1517 1518 1518 1519 1519 1519 1518 1519 1518 1518 1518 1518 1518 1517 1516 1516 1515 1514 1513 1511 1510 1509 1508 1507 1505 1504 1503 1501 1500 1498 1497 1495 1493 1491 1489 1488 1486 1484 1482 1479 1477 1474 1472 1469 1466 1463 1461 1459 1457 1455 1453 1451 1450 1449 1447 1446
1514 1514 1514 1515 1515 1515 1516 1517 1517 1517 1517 1517 1517 1517 1516 1516 1516 1515 1515 1514 1513 1513 1512 1511 1510 1508 1507 1506 1505 1504 1502 1501 1499 1498 1496 1494 1492 1491 1489 1486 1484 1482 1480 1479 1476 1475 1472 1470 1468 1465 1462 1458 1455 1453 1450 1448 1446 1444 1442 1440 1438 1438
1511 1512 1513 1513 1514 1514 1514 1515 1515 1515 1516 1515 1515 1515 1514 1514 1513 1513 1513 1512 1511 1511 1509 1508 1507 1506 1505 1503 1502 1501 1499 1497 1496 1494 1492 1490 1488 1486 1484 1482 1479 1477 1474 1472 1470 1468 1466 1464 1462 1460 1458 1455 1452 1448 1445 1442 1439 1437 1434 1431 1429 1428
1510 1510 1511 1511 1512 1512 1513 1513 1513 1514 1513 1513 1513 1513 1512 1512 1511 1511 1511 1510 1509 1508 1507 1506 1504 1503 1502 1500 1499 1497 1495 1494 1492 1490 1488 1486 1484 1482 1479 1477 1474 1472 1469 1466 1463 1461 1459 1457 1456 1454 1451 1449 1447 1444 1440 1436 1433 1430 1427 1424 1421 1419
1507 1508 1509 1510 1510 1511 1511 1511 1511 1511 1511 1511 1511 1510 1509 1509 1509 1508 1508 1507 1506 1505 1504 1503 1501 1500 1498 1497 1495 1493 1491 1490 1487 1485 1483 1481 1479 1476 1474 1472 1469 1466 1464 1461 1458 1455 1453 1451 1449 1446 1444 1441 1439 1437 1434 1430 1427 1423 1421 1418 1415 1411
1506 1506 1507 1508 1508 1508 1509 1509 1508 1508 1508 1508 1508 1507 1507 1506 1506 1506 1505 1504 1503 1502 1500 1499 1498 1497 1495 1494 1492 1490 1488 1486 1483 1481 1479 1476 1474 1471 1468 1466 1463 1461 1458 1455 1452 1449 1446 1444 1441 1438 1436 1433 1431 1429 1426 1422 1419 1415 1412 1409 1407 1404
1504 1504 1505 1505 1506 1506 1506 1506 1505 1505 1505 1505 1504 1504 1504 1503 1503 1503 1502 1501 1500 1498 1497 1496 1495 1493 1491 1490 1488 1486 1484 1482 1479 1477 1474 1471 1469 1466 1463 1460 1457 1455 1452 1449 1445 1442 1439 1437 1434 1431 1428 1425 1423 1421 1418 1414 1410 1406 1402 1399 1397 1396
1501 1502 1502 1502 1502 1503 1503 1502 1502 1502 1501 1501 1501 1501 1501 1501 1500 1500 1499 1497 1496 1495 1494 1492 1491 1489 1487 1486 1483 1481 1479 1476 1474 1472 1469 1466 1463 1460 1457 1455 1451 1449 1446 1443 1439 1435 1432 1430 1427 1424 1421 1418 1415 1413 1410 1406 1401 1397 1393 1390 1389 1388
1499 1499 1499 1499 1499 1499 1499 1499 1498 1498 1498 1498 1498 1498 1498 1498 1497 1496 1495 1494 1493 1491 1490 1488 1487 1485 1483 1481 1478 1476 1473 1471 1468 1466 1463 1460 1457 1455 1452 1449 1446 1443 1439 1436 1433 1428 1425 1422 1419 1416 1413 1411 1408 1405 1402 1398 1394 1390 1385 1382 1380 1379
1496 1496 1496 1495 1495 1495 1495 1495 1495 1495 1495 1495 1495 1495 1495 1494 1493 1492 1491 1490 1489 1487 1486 1484 1482 1480 1478 1475 1473 1470 1468 1465 1462 1460 1457 1454 1451 1449 1446 1443 1440 1436 1432 1429 1426 1421 1417 1414 1412 1410 1407 1404 1402 1399 1395 1392 1387 1383 1379 1376 1374 1373
1493 1493 1493 1492 1492 1492 1492 1492 1492 1492 1492 1492 1491 1491 1491 1490 1489 1488 1487 1486 1484 1483 1481 1479 1477 1475 1473 1470 1468 1465 1463 1460 1457 1455 1452 1449 1445 1443 1440 1436 1432 1429 1426 1422 1419 1415 1411 1407 1405 1404 1401 1399 1397 1393 1390 1386 1382 1378 1375 1371 1369 1368
1490 1490 1489 1489 1489 1488 1488 1488 1488 1488 1488 1488 1488 1487 1486 1486 1485 1484 1482 1481 1479 1478 1476 1475 1473 1470 1468 1465 1463 1460 1457 1455 1452 1450 1447 1444 1440 1437 1433 1429 1425 1421 1418 1415 1412 1409 1406 1402 1400 1399 1396 1393 1391 1388 1385 1382 1378 1374 1371 1368 1365 1363
1487 1486 1486 1486 1485 1485 1485 1485 1485 1485 1484 1484 1484 1483 1483 1482 1480 1479 1478 1476 1475 1473 1471 1470 1468 1465 1463 1461 1458 1455 1453 1450 1447 1445 1442 1439 1435 1431 1427 1423 1419 1415 1412 1409 1406 1403 1401 1398 1395 1393 1391 1387 1385 1384 1381 1378 1374 1370 1367 1364 1361 1358
1484 1483 1483 1483 1482 1482 1482 1482 1481 1481 1481 1481 1480 1480 1479 1477 1476 1475 1473 1472 1470 1469 1467 1465 1462 1460 1458 1456 1453 1450 1448 1446 1443 1440 1437 1433 1430 1425 1421 1417 1414 1409 1406 1403 1401 1398 1397 1395 1391 1388 1385 1382 1380 1379 1377 1374 1370 1367 1363 1359 1357 1354
1481 1480 1480 1479 1479 1479 1479 1478 1478 1478 1478 1477 1476 1475 1474 1473 1472 1470 1469 1468 1466 1464 1462 1460 1457 1455 1453 1450 1448 1445 1443 1441 1438 1435 1432 1429 1424 1420 1416 1412 1408 1404 1400 1398 1396 1394 1393 1391 1387 1383 1380 1378 1376 1375 1374 1371 1367 1365 1361 1356 1353 1351
1477 1477 1477 1476 1476 1476 1475 1475 1475 1474 1474 1473 1472 1471 1470 1468 1467 1466 1464 1463 1461 1459 1457 1455 1453 1450 1448 1445 1443 1440 1438 1436 1434 1430 1427 1424 1419 1414 1410 1407 1403 1399 1396 1393 1391 1390 1388 1386 1382 1379 1376 1374 1372 1370 1369 1367 1364 1362 1360 1355 1350 1347
1473 1473 1473 1473 1472 1472 1472 1472 1471 1471 1470 1469 1468 1466 1465 1464 1463 1461 1460 1459 1457 1455 1453 1450 1448 1445 1443 1441 1438 1436 1433 1431 1428 1425 1422 1419 1414 1410 1405 1401 1399 1395 1392 1388 1386 1385 1383 1380 1376 1374 1372 1370 1367 1366 1364 1362 1360 1358 1356 1352 1348 1344
1469 1469 1469 1469 1469 1468 1468 1468 1467 1467 1466 1465 1463 1462 1460 1459 1458 1457 1456 1454 1452 1450 1448 1445 1443 1441 1438 1436 1434 1431 1429 1427 1423 1420 1417 1414 1410 1405 1401 1397 1394 1391 1388 1384 1381 1378 1376 1373 1370 1368 1367 1365 1363 1361 1359 1357 1355 1353 1351 1347 1344 1340
1465 1465 1465 1465 1465 1464 1464 1464 1463 1462 1461 1460 1459 1458 1456 1455 1454 1452 1451 1449 1447 1445 1443 1440 1438 1436 1434 1432 1430 1428 1425 1422 1419 1416 1412 1409 1406 1401 1397 1393 1390 1387 1384 1380 1376 1372 1369 1367 1366 1363 1362 1360 1358 1355 1353 1351 1349 1347 1345 1342 1339 1335
1461 1461 1461 1461 1460 1460 1460 1459 1458 1458 1457 1455 1454 1453 1452 1451 1449 1448 1447 1445 1443 1441 1438 1436 1434 1432 1430 1428 1426 1424 1421 1419 1416 1412 1408 1406 1402 1397 1393 1389 1386 1383 1379 1375 1371 1368 1366 1364 1362 1360 1357 1355 1352 1349 1347 1344 1341 1339 1337 1334 1331 1328
1457 1457 1457 1457 1456 1456 1456 1455 1454 1453 1452 1451 1450 1448 1447 1446 1445 1443 1442 1440 1438 1436 1434 1431 1429 1427 1426 1424 1422 1420 1417 1415 1412 1408 1405 1403 1399 1393 1389 1385 1381 1379 1376 1372 1368 1366 1363 1361 1359 1356 1353 1351 1348 1345 1342 1340 1337 1334 1331 1327 1324 1320
1453 1453 1453 1453 1452 1452 1452 1451 1450 1449 1448 1447 1445 1444 1443 1442 1440 1439 1438 1435 1434 1431 1429 1427 1425 1423 1421 1419 1417 1415 1413 1411 1409 1405 1401 1399 1396 1392 1387 1382 1378 1376 1373 1370 1368 1365 1361 1357 1354 1353 1350 1348 1345 1343 1341 1338 1335 1332 1328 1324 1321 1317
1449 1448 1449 1448 1448 1448 1447 1447 1446 1445 1444 1443 1441 1439 1439 1437 1436 1435 1433 1431 1429 1427 1424 1422 1421 1419 1418 1415 1413 1411 1408 1407 1406 1403 1398 1395 1393 1391 1387 1383 1378 1375 1372 1369 1366 1363 1360 1355 1351 1349 1347 1344 1342 1340 1338 1335 1332 1329 1325 1322 1319 1315
1444 1444 1444 1444 1443 1443 1443 1442 1442 1441 1439 1438 1437 1436 1435 1433 1431 1430 1428 1426 1424 1422 1420 1418 1417 1415 1414 1412 1409 1406 1403 1401 1401 1401 1398 1394 1389 1387 1385 1381 1377 1373 1370 1366 1362 1359 1356 1352 1348 1345 1343 1340 1337 1335 1332 1330 1327 1324 1321 1318 1315 1311
1440 1440 1439 1439 1439 1438 1438 1438 1437 1436 1435 1434 1433 1432 1431 1429 1427 1425 1424 1422 1420 1418 1416 1414 1413 1411 1410 1408 1405 1403 1400 1396 1393 1393 1394 1393 1389 1384 1381 1378 1373 1369 1366 1363 1359 1354 1350 1347 1344 1341 1338 1335 1332 1330 1327 1325 1322 1318 1315 1313 1310 1306
1436 1435 1435 1435 1435 1434 1434 1434 1433 1432 1431 1430 1429 1428 1426 1425 1423 1421 1419 1417 1415 1413 1412 1411 1409 1408 1406 1404 1402 1399 1397 1394 1389 1386 1385 1385 1385 1383 1379 1375 1370 1365 1361 1358 1355 1351 1347 1343 1340 1337 1334 1331 1328 1325 1323 1319 1316 1313 1310 1307 1304 1301
1431 1431 1431 1431 1430 1430 1430 1430 1429 1427 1426 1426 1425 1423 1422 1421 1419 1417 1415 1413 1411 1409 1408 1407 1406 1404 1402 1400 1398 1396 1393 1391 1388 1384 1380 1377 1376 1376 1375 1372 1368 1363 1358 1353 1350 1347 1343 1340 1336 1333 1330 1327 1324 1321 1318 1313 1309 1307 1305 1303 1300 1297
1427 1427 1427 1426 1426 1426 1426 1426 1425 1423 1422 1421 1420 1419 1418 1416 1414 1413 1411 1410 1408 1406 1405 1403 1402 1401 1399 1397 1395 1393 1390 1388 1385 1382 1379 1375 1372 1370 1368 1366 1363 1360 1356 1351 1347 1343 1340 1336 1332 1329 1326 1324 1321 1317 1312 1308 1304 1302 1300 1298 1296 1293
1423 1423 1423 1422 1422 1422 1422 1422 1421 1419 1418 1417 1416 1414 1413 1412 1410 1409 1407 1406 1405 1403 1401 1400 1399 1398 1396 1393 1391 1389 1387 1385 1382 1380 1377 1374 1371 1368 1364 1361 1358 1355 1352 1349 1345 1341 1336 1333 1329 1326 1323 1320 1317 1313 1309 1305 1301 1298 1296 1294 1292 1289